Flag for Germany Weather past 2 weeks in Rastatt, Baden-Württemberg, Germany

Now
66 °F

Clear.


Feels Like: 66 °F
Forecast: 60 / 67 °F
Wind: No wind

Location: Karlsruhe - Baden Wurttemberg

Current Time: Jul 28, 2014 at 6:19:23 AM

Latest Report: Jul 28, 2014 at 5:50 AM


Visibility: 10 mi

Pressure: 29.89 "Hg

Humidity: 83%

Dew point: 61 °F

Location of RastattLocation

Historic Weather in Rastatt — Graph

°F

Rastatt temperature yesterday

Maximum temperature yesterday: 82 °F (at 3:50 PM)
Minimum temperature yesterday: 61 °F (at 4:50 AM)
Average temperature yesterday: 72 °F

Past Weeks' High & Low Weather Summary

 TemperatureHumidityPressure
High93 °F (Jul 19, 5:20 PM)94% (Jul 14, 7:20 AM)30.18 "Hg (Jul 14, 7:20 AM)
Low57 °F (Jul 15, 6:20 AM)24% (Jul 18, 4:20 PM)29.80 "Hg (Jul 13, 5:20 PM)
Average72 °F65%29.96 "Hg
* Reported Jul 12 10:20 PM — Jul 27 10:50 PM, Rastatt, Weather by CustomWeather, © 2014

Note: Actual official high and low records may vary slightly from our data, if they occured in-between our weather recording intervals... More about our weather records

Advertising

Rastatt weather history for previous 24 hours

 ConditionsComfort  
Time TempWeatherWind HumidityBarometerVisibility
10:50 PM
Jul 27
73 °FClear.6 mph65%29.98 "Hg10 mi
10:20 PM75 °FClear.6 mph61%29.98 "Hg10 mi
9:50 PM75 °FSunny.7 mph61%29.98 "Hg10 mi
9:20 PM75 °FSunny.5 mph57%29.98 "Hg10 mi
8:50 PM75 °FSunny.6 mph57%29.98 "Hg10 mi
8:20 PM77 °FSunny.2 mph54%29.95 "Hg10 mi
7:50 PM79 °FPassing clouds.5 mph51%29.95 "HgN/A
7:20 PM79 °FSunny.3 mph48%29.95 "Hg10 mi
6:50 PM81 °FPassing clouds.5 mph42%29.95 "HgN/A
6:20 PM81 °FSunny.3 mph39%29.95 "Hg10 mi
5:50 PM82 °FPassing clouds.6 mph40%29.95 "HgN/A
5:20 PM82 °FSunny.3 mph37%29.95 "Hg10 mi
4:20 PM82 °FScattered clouds.7 mph40%29.98 "Hg6 mi
3:50 PM82 °FScattered clouds.5 mph42%29.98 "HgN/A
3:20 PM79 °FPassing clouds.6 mph54%29.98 "HgN/A
2:50 PM81 °FSunny.5 mph51%29.98 "Hg10 mi
2:20 PM79 °FSunny.5 mph54%30.01 "Hg10 mi
1:50 PM79 °FSunny.5 mph58%30.01 "Hg10 mi
1:20 PM77 °FPassing clouds.7 mph57%30.01 "HgN/A
12:50 PM77 °FPassing clouds.6 mph57%30.01 "HgN/A
12:20 PM75 °FPassing clouds.5 mph61%30.01 "HgN/A
11:50 AM73 °FPassing clouds.5 mph61%30.01 "HgN/A
11:20 AM72 °FPassing clouds.6 mph65%30.01 "HgN/A
10:50 AM72 °FPassing clouds.7 mph69%30.01 "HgN/A
10:20 AM70 °FSunny.9 mph69%30.01 "Hg10 mi
9:50 AM68 °FSunny.9 mph73%30.01 "Hg10 mi
9:20 AM68 °FSunny.12 mph73%30.01 "Hg10 mi
8:50 AM66 °FSunny.7 mph78%30.01 "Hg10 mi
8:20 AM63 °FSunny.6 mph88%30.01 "Hg10 mi
7:50 AM61 °FSunny.6 mph94%30.01 "Hg10 mi
7:20 AM61 °FSunny.6 mph88%30.01 "Hg10 mi
6:50 AM61 °FClear.5 mph88%30.01 "Hg10 mi
6:20 AM61 °FClear.6 mph88%30.01 "Hg10 mi
Weather by CustomWeather, © 2014

See weather overviewHow to use our weather pages